Location: Roland
(31.1349°N, 85.4372°W)
Time: 03:35:12
(UTC+00:00)

Courier 1B - Pass Details

Date: 28 April 2021
Orbit: 962 x 1209 km, 28.3° (Epoch: 07 May)

Event Time Altitude Azimuth Distance (km) Brightness Sun altitude
Rises 15:27:09 0° 252° (WSW) 3,985 10.4 55.4°
Reaches altitude 10° 15:30:02 10° 250° (WSW) 2,991 9.9 56.0°
Maximum altitude 15:37:16 63° 171° (S) 1,179 9.3 57.4°
Drops below altitude 10° 15:44:03 10° 91° (E) 2,811 10.5 58.8°
Sets 15:46:42 0° 88° (E) 3,731 10.9 59.3°
